Regional Weather Roundup
Issued by NWS

Home | Current Version | Previous Version | Graphics & Text | Print | Product List | Glossary On
Versions: 1 2 3 4 5 6 7 8 9 10 11 12 13 14 15 16 17 18 19 20 21 22 23 24 25 26 27 28 29 30 31 32 33 34 35 36 37 38 39 40 41 42 43 44 45 46 47 48 49 50
000
ASUS43 KDMX 170107
RWRIA

WEATHER ROUNDUP FOR IOWA
NATIONAL WEATHER SERVICE DES MOINES IA
800 PM CDT TUE SEP 16 2014

NOTE: "FAIR" INDICATES FEW OR NO CLOUDS BELOW 12,000 FEET WITH NO
SIGNIFICANT WEATHER AND/OR OBSTRUCTIONS TO VISIBILITY.

* - THESE STATIONS ARE NOT NWS STATIONS...THUS NOT UNDER NWS
QUALITY CONTROL.  THEY ALSO DO NOT REPORT WEATHER SUCH
AS PRECIPITATION OR FOG.

IAZ001>003-012>014-020>022-031>034-043>046-170200-
   NORTHWEST IOWA

CITY           SKY/WX    TMP DP  RH WIND       PRES   REMARKS
CARROLL *      CLEAR     54  50  87 SE3       30.04S
CHEROKEE *     CLEAR     55  50  82 S6        30.02S
DENISON *      CLEAR     57  52  82 SE5       30.01F
LE MARS *      PTCLDY    59  52  77 SE8       30.02R
ORANGE CITY *  CLEAR     61  50  67 S6        30.02R
SHELDON *      CLEAR     55  50  82 S5        30.01R
SIOUX CITY     PTCLDY    58  51  78 S3        30.02R
SPENCER        PTCLDY    56  49  77 S8        30.02F
STORM LAKE *   CLEAR     57  54  88 S7        30.03S
$$

IAZ055>058-069>071-079>083-090>094-170200-
   SOUTHWEST IOWA

CITY           SKY/WX    TMP DP  RH WIND       PRES   REMARKS
ATLANTIC *     CLEAR     57  52  82 CALM      30.03F
AUDUBON *      CLEAR     54  46  76 CALM      30.05F
CLARINDA *     CLEAR     57  52  82 CALM      30.06R
COUNCIL BLFS * PTCLDY    59  52  77 S6        30.02S
CRESTON *      CLEAR     57  52  82 SE5       30.06S
HARLAN  *      CLEAR     57  52  82 CALM      30.06F
LAMONI         CLEAR     60  50  69 SE3       30.06S
SHENANDOAH *   MOCLDY    59  54  82 SE5       30.04S
$$

IAZ047>049-059>061-072>074-084-170200-
   CENTRAL IOWA

CITY           SKY/WX    TMP DP  RH WIND       PRES   REMARKS
AMES           CLEAR     52  49  89 SE3       30.05F
ANKENY *       CLEAR     55  50  82 CALM      30.05F
CHARITON *     CLEAR     57  52  82 SE3       30.06F
DES MOINES     PTCLDY    62  49  62 SE7       30.05F
GRINNELL*      CLEAR     55  48  76 CALM      30.07S
KNOXVILLE *    CLEAR     59  48  67 SE5       30.05F
MARSHALLTOWN   CLEAR     58  45  62 S3        30.06S
PELLA *        CLEAR     55  50  82 CALM      30.08S
PERRY *          N/A     55  50  82 SE5       30.05S
$$

IAZ004>006-015-016-023>025-035-036-170200-
   NORTH CENTRAL IOWA

CITY           SKY/WX    TMP DP  RH WIND       PRES   REMARKS
ALGONA *       MOCLDY    55  50  82 S7        30.04S
CLARION *        N/A     55  46  71 S6        30.05S
ESTHERVILLE    CLOUDY    57  49  74 S7        30.01F
FORT DODGE *   CLEAR     57  46  67 CALM      30.05S
MASON CITY     CLEAR     54  47  77 S3        30.06S
FOREST CITY *  CLEAR     52  46  82 CALM      30.04F
IOWA FALLS *     N/A     55  46  71 S6        30.07R
$$

IAZ007>011-017>019-026>030-037>042-050>054-066-170200-
   NORTHEAST IOWA

CITY           SKY/WX    TMP DP  RH WIND       PRES   REMARKS
CEDAR RAPIDS   CLEAR     53  48  83 CALM      30.07S
CHARLES CITY * CLEAR     55  46  71 S3        30.06F
CLINTON *      CLEAR     54  45  71 S5        30.12S
DECORAH *      CLEAR     54  46  76 CALM      30.06S
DUBUQUE        CLEAR     53  45  74 CALM      30.09S
MONTICELLO *   CLEAR     50  48  93 CALM      30.08S
OELWEIN *      CLEAR     55  46  71 CALM      30.08S
WATERLOO       CLEAR     55  47  74 S3        30.06S
$$

IAZ064-065-067-068-078-170200-
   EAST CENTRAL IOWA

CITY           SKY/WX    TMP DP  RH WIND       PRES   REMARKS
DAVENPORT      CLEAR     55  44  66 CALM      30.09F
IOWA CITY      CLEAR     56  51  84 CALM      30.08F
MT. PLEASANT * CLEAR     55  48  76 SE5       30.08S
MUSCATINE *    CLEAR     57  50  77 CALM      30.08F
QUAD CITIES    CLEAR     54  48  80 CALM      30.09S
$$

IAZ062-063-075>077-085>089-095>099-170200-
   SOUTHEAST IOWA

CITY           SKY/WX    TMP DP  RH WIND       PRES   REMARKS
BURLINGTON     CLEAR     55  49  80 CALM      30.08F
FAIRFIELD *    CLEAR     54  48  82 CALM      30.08S
FORT MADISON * CLEAR     54  52  94 CALM      30.09F
KEOKUK *       CLEAR     55  54  94 CALM      30.07F
OSKALOOSA *      N/A     57  50  77 CALM      30.07F
CENTERVILLE *  CLEAR     52  52 100 E3        30.08F
OTTUMWA        CLEAR     52  49  89 CALM      30.07S
WASHINGTON *   CLEAR     55  52  88 CALM      30.08S
$$

ABBREVIATIONS USED IN REMARKS
   TC - TEMPERATURES IN CELSIUS
  WCI - WIND CHILL INDEX
   HX - HEAT INDEX
  VSB - VISIBILITY
$$




USA.gov is the U.S. government's official web portal to all federal, state and local government web resources and services.